Regional Weather Roundup
Issued by NWS

Home | Current Version | Previous Version | Text Only | Print | Product List | Glossary Off
Versions: 1 2 3 4 5 6 7 8 9 10 11 12 13 14 15 16 17 18 19 20 21 22 23 24 25 26 27 28 29 30 31 32 33 34 35 36 37 38 39 40 41 42 43 44 45 46 47 48 49 50

000
ASUS43 KDMX 291607
RWRIA

WEATHER ROUNDUP FOR IOWA
NATIONAL WEATHER SERVICE DES MOINES IA
1100 AM CDT FRI MAY 29 2015

NOTE: "FAIR" INDICATES FEW OR NO CLOUDS BELOW 12,000 FEET WITH NO
SIGNIFICANT WEATHER AND/OR OBSTRUCTIONS TO VISIBILITY.

* - THESE STATIONS ARE NOT NWS STATIONS...THUS NOT UNDER NWS
QUALITY CONTROL.  THEY ALSO DO NOT REPORT WEATHER SUCH
AS PRECIPITATION OR FOG.

IAZ001>003-012>014-020>022-031>034-043>046-291700-
   NORTHWEST IOWA

CITY           SKY/WX    TMP DP  RH WIND       PRES   REMARKS
CARROLL *      CLOUDY    68  66  94 SW6G15    29.91F
CHEROKEE *     CLOUDY    70  66  88 SW13      29.90F
DENISON *      SUNNY     70  70 100 S9        29.90F
LE MARS *      CLOUDY    66  63  88 CALM      29.91S
ORANGE CITY *  CLOUDY    64  63  94 W7        29.90S
SHELDON *      CLOUDY    66  66 100 S7        29.89S FOG
SIOUX CITY     CLOUDY    69  60  73 SW6       29.89F
SPENCER        CLOUDY    68  65  90 S8        29.91S
STORM LAKE *   MOSUNNY   68  64  88 SW13      29.92F
$$

IAZ055>058-069>071-079>083-090>094-291700-
   SOUTHWEST IOWA

CITY           SKY/WX    TMP DP  RH WIND       PRES   REMARKS
ATLANTIC *     PTSUNNY   70  68  94 S12G17    29.93S
AUDUBON *      SUNNY     70  64  83 SW6       29.93S
CLARINDA *     CLOUDY    70  66  88 S9        29.97R
COUNCIL BLFS * MOSUNNY   70  70 100 SW12      29.93S
CRESTON *      CLOUDY    68  66  94 S13       29.96R
HARLAN  *      PTSUNNY   70  70 100 SW14      29.96S
LAMONI         CLOUDY    72  65  78 S12       29.97R
RED OAK *      MOSUNNY   70  66  88 SW12      29.94S
SHENANDOAH *   PTSUNNY   70  66  88 S12       29.95S
$$

IAZ047>049-059>061-072>074-084-291700-
   CENTRAL IOWA

CITY           SKY/WX    TMP DP  RH WIND       PRES   REMARKS
AMES           CLOUDY    70  64  81 S10       29.94S
ANKENY *       MOSUNNY   72  66  83 S8        29.94F
CHARITON *     MOSUNNY   70  66  88 S8        29.96F
DES MOINES     CLOUDY    72  64  76 S8        29.94F
GRINNELL*      CLOUDY    72  64  78 SW12      29.97F
KNOXVILLE *    MOSUNNY   72  64  78 VRB7      29.95F
MARSHALLTOWN   CLOUDY    73  62  68 SW13      29.95R
PELLA *        CLOUDY    73  68  83 SW5       29.97F
PERRY *        PTSUNNY   68  66  94 SW6       29.93F
$$

IAZ004>006-015-016-023>025-035-036-291700-
   NORTH CENTRAL IOWA

CITY           SKY/WX    TMP DP  RH WIND       PRES   REMARKS
ALGONA *       PTSUNNY   68  66  94 SW12      29.92S
CLARION *      CLOUDY    72  63  73 S12       29.94S
ESTHERVILLE    LGT RAIN  65  64  97 SW13      29.91S FOG
MASON CITY     CLOUDY    69  65  86 S10       29.94S
FOREST CITY *  SUNNY     68  64  88 SW12      29.92S
IOWA FALLS *   PTSUNNY   72  63  73 SW13      29.96R
$$

IAZ007>011-017>019-026>030-037>042-050>054-066-291700-
   NORTHEAST IOWA

CITY           SKY/WX    TMP DP  RH WIND       PRES   REMARKS
CEDAR RAPIDS   CLOUDY    72  67  84 SW8       29.95S
CHARLES CITY * PTSUNNY   73  66  78 SW10      29.95R
CLINTON *      PTSUNNY   70  66  88 SW10      30.00S
DECORAH *      SUNNY     73  63  68 S10       29.94S
DUBUQUE        PTSUNNY   72  67  84 S13       29.95F
MONTICELLO *   CLOUDY    73  70  88 S8        29.95S
OELWEIN *      SUNNY     73  64  73 S10       29.95S
WATERLOO       PTSUNNY   76  63  64 SW12      29.93S
$$

IAZ064-065-067-068-078-291700-
   EAST CENTRAL IOWA

CITY           SKY/WX    TMP DP  RH WIND       PRES   REMARKS
DAVENPORT      CLOUDY    72  66  81 S9        29.98S
IOWA CITY      CLOUDY    74  67  78 S7        29.97R
MT. PLEASANT * CLOUDY    72  66  83 SW9       29.98S
MUSCATINE *    PTSUNNY   75  66  73 VRB7      29.97R
QUAD CITIES    CLOUDY    71  67  87 S7        29.97S FOG
$$

IAZ062-063-075>077-085>089-095>099-291700-
   SOUTHEAST IOWA

CITY           SKY/WX    TMP DP  RH WIND       PRES   REMARKS
BURLINGTON     CLOUDY    71  67  87 SW12      29.98S
FAIRFIELD *    MOSUNNY   72  66  83 W6G12     29.98S
FORT MADISON * CLOUDY    72  66  83 S8        30.00R
KEOKUK *       CLOUDY    70  68  94 SW9       29.99R
OSKALOOSA *      N/A     72  64  78 SW8       29.97S
CENTERVILLE *  SUNNY     73  73 100 SW7       29.99S
OTTUMWA        CLOUDY    72  66  81 SW9       29.95S
WASHINGTON *   CLOUDY    72  68  88 SW8       29.98S
$$

ABBREVIATIONS USED IN REMARKS
   TC - TEMPERATURES IN CELSIUS
  WCI - WIND CHILL INDEX
   HX - HEAT INDEX
  VSB - VISIBILITY
$$




USA.gov is the U.S. government's official web portal to all federal, state and local government web resources and services.